DW3868 Weather Reports


Display with metric or nautical units.
time (UTC)temp
F
wind
direction
speed
MPH
gust
MPH
rain 1hr
in
rain 24hr
in
rain mn
in
humidity
%
barometer
mb
20190221153137 50 360 3.0 0.0 0.00 0.00 0.45 92 1014.9
20190221151831 49 355 1.0 0.0 0.00 0.00 0.45 92 1014.8
20190221150209 48 235 0.0 0.0 0.00 0.00 0.45 92 1014.9
20190221144710 48 235 0.0 0.0 0.00 0.00 0.45 92 1014.9
20190221143226 47 235 0.0 0.0 0.00 0.00 0.45 92 1015.0
20190221141838 47 235 0.0 0.0 0.00 0.00 0.45 92 1015.0
20190221140229 47 235 0.0 0.0 0.00 0.00 0.45 92 1015.1
20190221134617 47 235 0.0 0.0 0.00 0.00 0.45 92 1014.8
20190221133135 46 235 0.0 0.0 0.00 0.00 0.45 92 1014.7
20190221131705 46 234 0.0 0.0 0.00 0.00 0.45 92 1014.8
20190221130123 45 234 0.0 0.0 0.00 0.00 0.45 92 1014.7
20190221124759 45 234 0.0 0.0 0.00 0.00 0.45 92 1014.1
20190221123202 46 234 0.0 0.0 0.00 0.00 0.45 92 1013.6
20190221121616 46 234 0.0 0.0 0.00 0.00 0.45 92 1013.5
20190221120122 46 234 0.0 0.0 0.00 0.00 0.45 92 1013.0
20190221114608 46 234 1.0 0.0 0.00 0.00 0.45 92 1012.8
20190221113142 46 233 1.0 0.0 0.00 0.00 0.45 92 1012.8
20190221111649 46 233 0.0 0.0 0.00 0.00 0.45 92 1012.7
20190221110124 46 233 0.0 0.0 0.00 0.00 0.44 92 1012.6
20190221104647 45 233 0.0 0.0 0.00 0.00 0.44 92 1012.2
20190221103138 45 233 0.0 0.0 0.00 0.00 0.44 92 1012.1
20190221101551 45 233 0.0 0.0 0.00 0.00 0.44 92 1012.7
20190221100129 43 233 0.0 0.0 0.00 0.00 0.44 92 1012.8
20190221094602 44 233 0.0 0.0 0.00 0.00 0.43 92 1012.6
20190221093056 43 233 0.0 0.0 0.00 0.00 0.43 92 1012.5
20190221091553 44 233 0.0 0.0 0.00 0.00 0.42 92 1012.0
20190221090056 45 233 0.0 0.0 0.00 0.00 0.42 92 1012.0
20190221084547 45 233 0.0 0.0 0.00 0.00 0.42 92 1012.0
20190221083059 46 233 0.0 0.0 0.00 0.00 0.41 92 1012.2
20190221081612 46 233 0.0 0.0 0.00 0.00 0.40 92 1012.3
20190221080153 48 233 0.0 0.0 0.00 0.00 0.39 92 1012.7
20190221074550 49 233 0.0 0.0 0.00 0.00 0.38 92 1012.4
20190221073051 49 233 3.0 0.0 0.00 0.00 0.36 92 1012.1
20190221071559 49 234 3.0 0.0 0.00 0.00 0.32 92 1012.1
20190221070111 49 226 5.0 0.0 0.00 0.00 0.28 92 1012.9
20190221064538 48 329 2.0 0.0 0.00 0.00 0.22 92 1013.0
20190221063043 47 272 2.0 0.0 0.00 0.00 0.19 92 1012.9
20190221061625 46 230 0.0 0.0 0.00 0.00 0.16 92 1012.5
20190221060038 46 230 3.0 0.0 0.00 0.00 0.13 92 1012.3
20190221054534 46 240 2.0 0.0 0.00 0.00 0.08 92 1013.0
20190221053054 44 244 2.0 0.0 0.00 0.00 0.04 92 1012.9
20190221051527 42 264 0.0 0.0 0.00 0.00 0.02 92 1013.3
20190221050023 45 264 0.0 0.0 0.00 0.00 0.00 92 1013.3
20190221044513 45 261 2.0 0.0 0.00 0.00 0.42 92 1013.5
20190221043006 44 255 3.0 0.0 0.00 0.00 0.39 92 1013.7
20190221041715 41 306 2.0 0.0 0.00 0.00 0.37 92 1013.6
20190221040147 37 214 0.0 0.0 0.00 0.00 0.36 92 1013.8
20190221034729 37 213 1.0 0.0 0.00 0.00 0.36 92 1014.1
20190221033209 36 213 1.0 0.0 0.00 0.00 0.35 92 1014.4
20190221031758 34 213 0.0 0.0 0.00 0.00 0.34 92 1014.5
20190221030158 34 213 0.0 0.0 0.00 0.00 0.34 92 1014.3
20190221024815 34 213 0.0 0.0 0.00 0.00 0.34 92 1014.5
20190221023148 34 213 0.0 0.0 0.00 0.00 0.33 92 1014.3
20190221021603 33 213 2.0 0.0 0.00 0.00 0.33 92 1014.1
20190221020129 33 213 2.0 0.0 0.00 0.00 0.33 92 1014.9
20190221014648 33 213 1.0 0.0 0.00 0.00 0.33 92 1015.4
20190221013106 33 213 1.0 0.0 0.00 0.00 0.32 92 1014.6
20190221011647 33 213 2.0 0.0 0.00 0.00 0.32 92 1015.3
20190221010153 33 213 0.0 0.0 0.00 0.00 0.32 92 1015.6
20190221004704 33 213 0.0 0.0 0.00 0.00 0.31 92 1015.1
20190221003128 33 213 0.0 0.0 0.00 0.00 0.31 92 1015.5
20190221001633 34 213 0.0 0.0 0.00 0.00 0.30 92 1015.4
20190221000204 35 213 0.0 0.0 0.00 0.00 0.28 92 1014.3
20190220234612 34 219 0.0 0.0 0.00 0.00 0.27 92 1013.9
20190220233112 32 196 0.0 0.0 0.00 0.00 0.23 92 1015.3
20190220231648 32 223 0.0 0.0 0.00 0.00 0.19 92 1016.1
20190220230123 32 223 0.0 0.0 0.00 0.00 0.13 92 1019.0
20190220224617 32 223 0.0 0.0 0.00 0.00 0.11 92 1018.9
20190220223120 32 223 0.0 0.0 0.00 0.00 0.11 92 1018.5
20190220221546 32 223 0.0 0.0 0.00 0.00 0.10 92 1019.1
20190220220120 32 223 0.0 0.0 0.00 0.00 0.09 92 1019.0
20190220214549 32 223 0.0 0.0 0.00 0.00 0.09 92 1019.1
20190220213050 32 223 0.0 0.0 0.00 0.00 0.08 92 1018.6
20190220211555 32 223 0.0 0.0 0.00 0.00 0.07 92 1018.0
20190220210127 32 223 0.0 0.0 0.00 0.00 0.07 92 1018.1
20190220204606 32 223 0.0 0.0 0.00 0.00 0.07 92 1018.2
20190220203052 32 223 0.0 0.0 0.00 0.00 0.06 92 1018.5
20190220201554 32 223 0.0 0.0 0.00 0.00 0.05 92 1018.4
20190220200118 32 223 0.0 0.0 0.00 0.00 0.05 92 1018.3
20190220194639 32 223 0.0 0.0 0.00 0.00 0.04 92 1018.4
20190220193041 32 223 0.0 0.0 0.00 0.00 0.04 92 1018.9
20190220191600 32 223 0.0 0.0 0.00 0.00 0.03 92 1018.9
20190220190036 32 223 0.0 0.0 0.00 0.00 0.02 92 1018.9
20190220184555 32 222 0.0 0.0 0.00 0.00 0.01 92 1019.0
20190220183050 32 223 0.0 0.0 0.00 0.00 0.00 92 1019.5
20190220181552 32 223 0.0 0.0 0.00 0.00 0.00 92 1019.7
20190220180021 31 223 0.0 0.0 0.00 0.00 0.00 92 1019.7
20190220174535 31 223 0.0 0.0 0.00 0.00 0.00 92 1020.0
20190220173026 31 223 1.0 0.0 0.00 0.00 0.00 92 1020.6
20190220171513 31 222 1.0 0.0 0.00 0.00 0.00 92 1020.7
20190220170034 30 222 0.0 0.0 0.00 0.00 0.00 92 1021.0
20190220164510 30 222 0.0 0.0 0.00 0.00 0.00 92 1021.4
20190220163007 30 223 1.0 0.0 0.00 0.00 0.00 92 1021.4
20190220161500 30 228 0.0 0.0 0.00 0.00 0.00 92 1021.3
20190220160252 29 231 2.0 0.0 0.00 0.00 0.00 92 1021.1
20190220154655 29 202 3.0 0.0 0.00 0.00 0.00 92 1021.2